| time (UTC) | temp C | wind direction | speed KPH | gust KPH | rain 1hr cm | rain 24hr cm | rain mn cm | humidity % | barometer mb |
| 20260509192006 | 20 | 332 | 0.0 | 11.3 | 0.00 | 0.00 | 0.00 | 60 | 1017.5 |
| 20260509191507 | 20 | 97 | 1.6 | 11.3 | 0.00 | 0.00 | 0.00 | 61 | 1017.5 |
| 20260509191006 | 19 | 71 | 3.2 | 11.3 | 0.00 | 0.00 | 0.00 | 61 | 1017.5 |
| 20260509190506 | 19 | 305 | 0.0 | 9.7 | 0.00 | 0.00 | 0.00 | 62 | 1017.5 |
| 20260509190007 | 19 | 35 | 0.0 | 4.8 | 0.00 | 0.00 | 0.00 | 63 | 1017.5 |
| 20260509185506 | 19 | 43 | 1.6 | 4.8 | 0.00 | 0.00 | 0.00 | 63 | 1017.5 |
| 20260509184506 | 18 | 42 | 0.0 | 3.2 | 0.00 | 0.00 | 0.00 | 66 | 1017.5 |
| 20260509184006 | 18 | 114 | 0.0 | 3.2 | 0.00 | 0.00 | 0.00 | 66 | 1017.5 |
| 20260509183507 | 18 | 7 | 0.0 | 9.7 | 0.00 | 0.00 | 0.00 | 67 | 1017.5 |
| 20260509182507 | 18 | 81 | 1.6 | 8.0 | 0.00 | 0.00 | 0.00 | 67 | 1017.5 |
| 20260509182007 | 18 | 54 | 1.6 | 8.0 | 0.00 | 0.00 | 0.00 | 68 | 1017.5 |
| 20260509181507 | 17 | 100 | 1.6 | 8.0 | 0.00 | 0.00 | 0.00 | 69 | 1017.5 |
| 20260509181007 | 17 | 328 | 0.0 | 0.0 | 0.00 | 0.00 | 0.00 | 69 | 1017.5 |
| 20260509175508 | 17 | 35 | 0.0 | 11.3 | 0.00 | 0.00 | 0.00 | 71 | 1017.5 |
| 20260509175008 | 17 | 48 | 3.2 | 11.3 | 0.00 | 0.00 | 0.00 | 72 | 1017.5 |
| 20260509174507 | 16 | 217 | 0.0 | 11.3 | 0.00 | 0.00 | 0.00 | 72 | 1017.5 |
| 20260509174007 | 16 | 100 | 0.0 | 11.3 | 0.00 | 0.00 | 0.00 | 73 | 1017.5 |
| 20260509173507 | 16 | 24 | 0.0 | 3.2 | 0.00 | 0.00 | 0.00 | 73 | 1017.5 |
| 20260509172506 | 16 | 48 | 1.6 | 9.7 | 0.00 | 0.00 | 0.00 | 75 | 1019.5 |
| 20260509171506 | 15 | 24 | 0.0 | 8.0 | 0.00 | 0.00 | 0.00 | 76 | 1018.5 |
| 20260509171006 | 15 | 304 | 1.6 | 8.0 | 0.00 | 0.00 | 0.00 | 77 | 1018.5 |
| 20260509170506 | 15 | 217 | 0.0 | 9.7 | 0.00 | 0.00 | 0.00 | 77 | 1018.5 |
| 20260509170006 | 15 | 98 | 0.0 | 9.7 | 0.00 | 0.00 | 0.00 | 78 | 1018.5 |
| 20260509165007 | 15 | 305 | 0.0 | 0.0 | 0.00 | 0.00 | 0.00 | 78 | 1018.5 |
| 20260509164506 | 14 | 203 | 0.0 | 0.0 | 0.00 | 0.00 | 0.00 | 80 | 1018.5 |
| 20260509164006 | 14 | 305 | 0.0 | 0.0 | 0.00 | 0.00 | 0.00 | 80 | 1018.5 |
| 20260509163006 | 14 | 35 | 0.0 | 12.9 | 0.00 | 0.00 | 0.00 | 81 | 1018.5 |
| 20260509162506 | 14 | 65 | 0.0 | 12.9 | 0.00 | 0.00 | 0.00 | 82 | 1018.5 |
| 20260509162006 | 14 | 106 | 0.0 | 8.0 | 0.00 | 0.00 | 0.00 | 81 | 1018.5 |
| 20260509161506 | 14 | 66 | 0.0 | 0.0 | 0.00 | 0.00 | 0.00 | 81 | 1018.5 |
| 20260509161006 | 13 | 30 | 0.0 | 0.0 | 0.00 | 0.00 | 0.00 | 82 | 1018.5 |
| 20260509160506 | 13 | 212 | 0.0 | 0.0 | 0.00 | 0.00 | 0.00 | 83 | 1018.5 |
| 20260509160007 | 13 | 318 | 0.0 | 3.2 | 0.00 | 0.00 | 0.00 | 84 | 1017.5 |
| 20260509155507 | 13 | 98 | 0.0 | 4.8 | 0.00 | 0.00 | 0.00 | 83 | 1017.5 |
| 20260509155006 | 13 | 36 | 0.0 | 4.8 | 0.00 | 0.00 | 0.00 | 83 | 1017.5 |
| 20260509154006 | 12 | 296 | 0.0 | 4.8 | 0.00 | 0.00 | 0.00 | 84 | 1018.5 |
| 20260509153506 | 12 | 33 | 0.0 | 4.8 | 0.00 | 0.00 | 0.00 | 84 | 1018.5 |
| 20260509153006 | 12 | 78 | 0.0 | 4.8 | 0.00 | 0.00 | 0.00 | 85 | 1018.5 |
| 20260509152507 | 12 | 46 | 0.0 | 8.0 | 0.00 | 0.00 | 0.00 | 85 | 1018.5 |
| 20260509151506 | 12 | 50 | 0.0 | 3.2 | 0.00 | 0.00 | 0.00 | 85 | 1018.5 |
| 20260509151006 | 12 | 35 | 0.0 | 3.2 | 0.00 | 0.00 | 0.00 | 85 | 1018.5 |
| 20260509150006 | 12 | 305 | 0.0 | 0.0 | 0.00 | 0.00 | 0.00 | 86 | 1018.5 |
| 20260509145510 | 11 | 95 | 0.0 | 0.0 | 0.00 | 0.00 | 0.00 | 87 | 1018.5 |
| 20260509145007 | 11 | 76 | 0.0 | 0.0 | 0.00 | 0.00 | 0.00 | 88 | 1018.5 |
| 20260509144506 | 11 | 42 | 0.0 | 0.0 | 0.00 | 0.00 | 0.00 | 88 | 1019.5 |
| 20260509144006 | 11 | 122 | 0.0 | 0.0 | 0.00 | 0.00 | 0.00 | 88 | 1019.5 |
| 20260509143507 | 11 | 305 | 0.0 | 0.0 | 0.00 | 0.00 | 0.00 | 88 | 1019.5 |
| 20260509143007 | 11 | 305 | 0.0 | 0.0 | 0.00 | 0.00 | 0.00 | 89 | 1018.5 |
| 20260509142506 | 11 | 305 | 0.0 | 0.0 | 0.00 | 0.00 | 0.00 | 89 | 1018.5 |
| 20260509142006 | 11 | 305 | 0.0 | 0.0 | 0.00 | 0.00 | 0.00 | 90 | 1018.5 |
| 20260509141506 | 11 | 305 | 0.0 | 0.0 | 0.00 | 0.00 | 0.00 | 90 | 1018.5 |
| 20260509141006 | 10 | 305 | 0.0 | 0.0 | 0.00 | 0.00 | 0.00 | 90 | 1018.5 |
| 20260509140506 | 10 | 305 | 0.0 | 0.0 | 0.00 | 0.00 | 0.00 | 90 | 1018.5 |
| 20260509140006 | 10 | 305 | 0.0 | 0.0 | 0.00 | 0.00 | 0.00 | 90 | 1018.5 |
| 20260509135506 | 10 | 305 | 0.0 | 0.0 | 0.00 | 0.00 | 0.00 | 90 | 1018.5 |
| 20260509135006 | 9 | 305 | 0.0 | 0.0 | 0.00 | 0.00 | 0.00 | 90 | 1018.5 |
| 20260509134506 | 9 | 305 | 0.0 | 0.0 | 0.00 | 0.00 | 0.00 | 90 | 1018.5 |
| 20260509134006 | 9 | 305 | 0.0 | 0.0 | 0.00 | 0.00 | 0.00 | 90 | 1018.5 |
| 20260509133506 | 9 | 305 | 0.0 | 0.0 | 0.00 | 0.00 | 0.00 | 89 | 1018.5 |
| 20260509132507 | 8 | 305 | 0.0 | 0.0 | 0.00 | 0.00 | 0.00 | 88 | 1018.5 |
| 20260509132006 | 8 | 305 | 0.0 | 0.0 | 0.00 | 0.00 | 0.00 | 89 | 1018.5 |
| 20260509131506 | 8 | 305 | 0.0 | 0.0 | 0.00 | 0.00 | 0.00 | 88 | 1018.5 |
| 20260509131007 | 8 | 305 | 0.0 | 0.0 | 0.00 | 0.00 | 0.00 | 88 | 1018.5 |
| 20260509130006 | 8 | 305 | 0.0 | 0.0 | 0.00 | 0.00 | 0.00 | 88 | 1018.5 |
| 20260509125506 | 8 | 305 | 0.0 | 0.0 | 0.00 | 0.00 | 0.00 | 88 | 1018.5 |
| 20260509125006 | 8 | 305 | 0.0 | 0.0 | 0.00 | 0.00 | 0.00 | 87 | 1018.5 |
| 20260509123506 | 8 | 305 | 0.0 | 0.0 | 0.00 | 0.00 | 0.00 | 86 | 1019.5 |
| 20260509123006 | 8 | 305 | 0.0 | 0.0 | 0.00 | 0.00 | 0.00 | 87 | 1018.5 |
| 20260509122506 | 8 | 305 | 0.0 | 0.0 | 0.00 | 0.00 | 0.00 | 86 | 1018.5 |
| 20260509122006 | 8 | 305 | 0.0 | 0.0 | 0.00 | 0.00 | 0.00 | 86 | 1018.5 |
| 20260509121506 | 8 | 305 | 0.0 | 0.0 | 0.00 | 0.00 | 0.00 | 86 | 1018.5 |
| 20260509121006 | 8 | 305 | 0.0 | 0.0 | 0.00 | 0.00 | 0.00 | 86 | 1018.5 |
| 20260509120506 | 9 | 305 | 0.0 | 0.0 | 0.00 | 0.00 | 0.00 | 86 | 1018.5 |
| 20260509115506 | 9 | 305 | 0.0 | 0.0 | 0.00 | 0.00 | 0.00 | 85 | 1018.5 |
| 20260509115006 | 9 | 305 | 0.0 | 0.0 | 0.00 | 0.00 | 0.00 | 85 | 1018.5 |
| 20260509114506 | 9 | 305 | 0.0 | 0.0 | 0.00 | 0.00 | 0.00 | 85 | 1019.5 |
| 20260509114006 | 9 | 305 | 0.0 | 0.0 | 0.00 | 0.00 | 0.00 | 85 | 1019.5 |
| 20260509113506 | 9 | 305 | 0.0 | 0.0 | 0.00 | 0.00 | 0.00 | 85 | 1019.5 |
| 20260509113006 | 9 | 305 | 0.0 | 0.0 | 0.00 | 0.00 | 0.00 | 85 | 1019.5 |
| 20260509112506 | 9 | 305 | 0.0 | 0.0 | 0.00 | 0.00 | 0.00 | 85 | 1019.5 |
| 20260509112006 | 9 | 305 | 0.0 | 0.0 | 0.00 | 0.00 | 0.00 | 85 | 1019.5 |
| 20260509111006 | 9 | 305 | 0.0 | 0.0 | 0.00 | 0.00 | 0.00 | 84 | 1019.5 |
| 20260509110006 | 9 | 305 | 0.0 | 0.0 | 0.00 | 0.00 | 0.00 | 84 | 1019.5 |
| 20260509105506 | 9 | 305 | 0.0 | 0.0 | 0.00 | 0.00 | 0.00 | 84 | 1019.5 |
| 20260509105005 | 9 | 305 | 0.0 | 0.0 | 0.00 | 0.00 | 0.00 | 84 | 1019.5 |
| 20260509104006 | 10 | 305 | 0.0 | 0.0 | 0.00 | 0.00 | 0.00 | 84 | 1019.5 |
| 20260509103505 | 10 | 305 | 0.0 | 0.0 | 0.00 | 0.00 | 0.00 | 83 | 1019.5 |
| 20260509103005 | 10 | 305 | 0.0 | 0.0 | 0.00 | 0.00 | 0.00 | 83 | 1019.5 |
| 20260509102005 | 10 | 305 | 0.0 | 0.0 | 0.00 | 0.00 | 0.00 | 82 | 1019.5 |
| 20260509101005 | 10 | 305 | 0.0 | 0.0 | 0.00 | 0.00 | 0.00 | 82 | 1019.5 |
| 20260509100506 | 10 | 305 | 0.0 | 0.0 | 0.00 | 0.00 | 0.00 | 81 | 1019.5 |
| 20260509100006 | 10 | 305 | 0.0 | 0.0 | 0.00 | 0.00 | 0.00 | 81 | 1020.5 |
| 20260509095505 | 10 | 305 | 0.0 | 0.0 | 0.00 | 0.00 | 0.00 | 80 | 1020.5 |
| 20260509095005 | 10 | 305 | 0.0 | 0.0 | 0.00 | 0.00 | 0.00 | 80 | 1020.5 |
| 20260509094006 | 10 | 305 | 0.0 | 0.0 | 0.00 | 0.00 | 0.00 | 79 | 1020.5 |
| 20260509093506 | 10 | 305 | 0.0 | 0.0 | 0.00 | 0.00 | 0.00 | 79 | 1020.5 |
| 20260509093005 | 10 | 305 | 0.0 | 0.0 | 0.00 | 0.00 | 0.00 | 79 | 1020.5 |
| 20260509092505 | 10 | 305 | 0.0 | 0.0 | 0.00 | 0.00 | 0.00 | 79 | 1020.5 |
| 20260509092006 | 10 | 305 | 0.0 | 0.0 | 0.00 | 0.00 | 0.00 | 78 | 1020.5 |
| 20260509091505 | 10 | 305 | 0.0 | 0.0 | 0.00 | 0.00 | 0.00 | 78 | 1020.5 |
| 20260509090005 | 10 | 305 | 0.0 | 0.0 | 0.00 | 0.00 | 0.00 | 77 | 1021.5 |
| 20260509085505 | 10 | 305 | 0.0 | 0.0 | 0.00 | 0.00 | 0.00 | 76 | 1021.5 |
| 20260509085006 | 11 | 305 | 0.0 | 0.0 | 0.00 | 0.00 | 0.00 | 77 | 1021.5 |
| 20260509084506 | 11 | 58 | 0.0 | 0.0 | 0.00 | 0.00 | 0.00 | 77 | 1020.5 |
| 20260509083505 | 11 | 58 | 0.0 | 0.0 | 0.00 | 0.00 | 0.00 | 76 | 1020.5 |
| 20260509083005 | 11 | 305 | 0.0 | 0.0 | 0.00 | 0.00 | 0.00 | 75 | 1020.5 |
| 20260509082505 | 11 | 305 | 0.0 | 0.0 | 0.00 | 0.00 | 0.00 | 75 | 1020.5 |
| 20260509082005 | 11 | 192 | 0.0 | 0.0 | 0.00 | 0.00 | 0.00 | 75 | 1020.5 |
| 20260509081005 | 11 | 170 | 0.0 | 0.0 | 0.00 | 0.00 | 0.00 | 75 | 1020.5 |
| 20260509080505 | 11 | 125 | 0.0 | 0.0 | 0.00 | 0.00 | 0.00 | 74 | 1020.5 |
| 20260509080006 | 11 | 125 | 0.0 | 0.0 | 0.00 | 0.00 | 0.00 | 74 | 1019.5 |
| 20260509075505 | 11 | 125 | 0.0 | 0.0 | 0.00 | 0.00 | 0.00 | 73 | 1019.5 |
| 20260509075006 | 11 | 35 | 0.0 | 0.0 | 0.00 | 0.00 | 0.00 | 73 | 1019.5 |
| 20260509074505 | 11 | 65 | 0.0 | 0.0 | 0.00 | 0.00 | 0.00 | 73 | 1020.5 |
| 20260509074005 | 11 | 80 | 0.0 | 0.0 | 0.00 | 0.00 | 0.00 | 72 | 1020.5 |
| 20260509073505 | 12 | 80 | 0.0 | 0.0 | 0.00 | 0.00 | 0.00 | 72 | 1020.5 |
| 20260509073005 | 12 | 35 | 0.0 | 0.0 | 0.00 | 0.00 | 0.00 | 72 | 1019.5 |
| 20260509072505 | 12 | 35 | 0.0 | 0.0 | 0.00 | 0.00 | 0.00 | 71 | 1019.5 |
| 20260509071505 | 12 | 238 | 0.0 | 0.0 | 0.00 | 0.00 | 0.00 | 71 | 1020.5 |
| 20260509070505 | 12 | 260 | 0.0 | 0.0 | 0.00 | 0.00 | 0.00 | 71 | 1020.5 |
| 20260509070005 | 12 | 260 | 0.0 | 0.0 | 0.00 | 0.00 | 0.00 | 70 | 1020.5 |
| 20260509065005 | 12 | 102 | 0.0 | 0.0 | 0.00 | 0.00 | 0.00 | 70 | 1020.5 |
| 20260509064006 | 12 | 170 | 0.0 | 0.0 | 0.00 | 0.00 | 0.00 | 70 | 1019.5 |
| 20260509063005 | 12 | 215 | 0.0 | 0.0 | 0.00 | 0.00 | 0.00 | 69 | 1020.5 |
| 20260509062005 | 13 | 35 | 0.0 | 0.0 | 0.00 | 0.00 | 0.00 | 68 | 1020.5 |
| 20260509060506 | 13 | 35 | 0.0 | 0.0 | 0.00 | 0.00 | 0.00 | 67 | 1019.5 |
| 20260509060005 | 13 | 35 | 0.0 | 0.0 | 0.00 | 0.00 | 0.00 | 66 | 1020.5 |
| 20260509055504 | 13 | 35 | 0.0 | 0.0 | 0.00 | 0.00 | 0.00 | 66 | 1020.5 |
| 20260509055005 | 13 | 35 | 0.0 | 0.0 | 0.00 | 0.00 | 0.00 | 66 | 1020.5 |
| 20260509054505 | 13 | 35 | 0.0 | 0.0 | 0.00 | 0.00 | 0.00 | 65 | 1020.5 |
| 20260509054005 | 13 | 35 | 0.0 | 0.0 | 0.00 | 0.00 | 0.00 | 64 | 1020.5 |
| 20260509053506 | 14 | 35 | 0.0 | 0.0 | 0.00 | 0.00 | 0.00 | 64 | 1020.5 |
| 20260509053005 | 14 | 35 | 0.0 | 0.0 | 0.00 | 0.00 | 0.00 | 63 | 1020.5 |
| 20260509052505 | 14 | 35 | 0.0 | 0.0 | 0.00 | 0.00 | 0.00 | 63 | 1020.5 |
| 20260509052005 | 14 | 86 | 0.0 | 0.0 | 0.00 | 0.00 | 0.00 | 63 | 1020.5 |
| 20260509051505 | 14 | 39 | 0.0 | 0.0 | 0.00 | 0.00 | 0.00 | 63 | 1020.5 |
| 20260509050505 | 15 | 55 | 0.0 | 0.0 | 0.00 | 0.00 | 0.00 | 61 | 1020.5 |
| 20260509050004 | 15 | 55 | 0.0 | 0.0 | 0.00 | 0.00 | 0.00 | 61 | 1020.5 |
| 20260509045005 | 15 | 58 | 0.0 | 0.0 | 0.00 | 0.00 | 0.00 | 60 | 1020.5 |
| 20260509044505 | 15 | 305 | 0.0 | 0.0 | 0.00 | 0.00 | 0.00 | 60 | 1020.5 |
| 20260509044005 | 15 | 305 | 0.0 | 0.0 | 0.00 | 0.00 | 0.00 | 60 | 1020.5 |
| 20260509043505 | 15 | 305 | 0.0 | 0.0 | 0.00 | 0.00 | 0.00 | 59 | 1020.5 |
| 20260509043005 | 15 | 305 | 0.0 | 0.0 | 0.00 | 0.00 | 0.00 | 59 | 1020.5 |
| 20260509042504 | 15 | 305 | 0.0 | 0.0 | 0.00 | 0.00 | 0.00 | 59 | 1020.5 |
| 20260509042005 | 15 | 305 | 0.0 | 0.0 | 0.00 | 0.00 | 0.00 | 58 | 1020.5 |
| 20260509041004 | 15 | 305 | 0.0 | 0.0 | 0.00 | 0.00 | 0.00 | 58 | 1020.5 |
| 20260509040505 | 16 | 305 | 0.0 | 0.0 | 0.00 | 0.00 | 0.00 | 58 | 1020.5 |
| 20260509040005 | 16 | 305 | 0.0 | 0.0 | 0.00 | 0.00 | 0.00 | 58 | 1020.5 |
| 20260509035504 | 16 | 305 | 0.0 | 0.0 | 0.00 | 0.00 | 0.00 | 57 | 1020.5 |
| 20260509035005 | 16 | 305 | 0.0 | 0.0 | 0.00 | 0.00 | 0.00 | 57 | 1020.5 |
| 20260509034004 | 16 | 305 | 0.0 | 0.0 | 0.00 | 0.00 | 0.00 | 56 | 1019.5 |
| 20260509033004 | 16 | 305 | 0.0 | 0.0 | 0.00 | 0.00 | 0.00 | 56 | 1019.5 |
| 20260509031005 | 16 | 305 | 0.0 | 0.0 | 0.00 | 0.00 | 0.00 | 54 | 1019.5 |
| 20260509030505 | 16 | 305 | 0.0 | 0.0 | 0.00 | 0.00 | 0.00 | 54 | 1019.5 |
| 20260509025505 | 16 | 305 | 0.0 | 0.0 | 0.00 | 0.00 | 0.00 | 53 | 1019.5 |
| 20260509025004 | 16 | 305 | 0.0 | 0.0 | 0.00 | 0.00 | 0.00 | 53 | 1019.5 |
| 20260509024504 | 17 | 305 | 0.0 | 0.0 | 0.00 | 0.00 | 0.00 | 52 | 1019.5 |
| 20260509024005 | 17 | 305 | 0.0 | 0.0 | 0.00 | 0.00 | 0.00 | 52 | 1019.5 |
| 20260509023504 | 17 | 305 | 0.0 | 0.0 | 0.00 | 0.00 | 0.00 | 52 | 1019.5 |
| 20260509023004 | 17 | 305 | 0.0 | 0.0 | 0.00 | 0.00 | 0.00 | 52 | 1019.5 |
| 20260509022504 | 17 | 305 | 0.0 | 0.0 | 0.00 | 0.00 | 0.00 | 52 | 1019.5 |
| 20260509022004 | 17 | 305 | 0.0 | 0.0 | 0.00 | 0.00 | 0.00 | 52 | 1019.5 |
| 20260509021504 | 17 | 305 | 0.0 | 0.0 | 0.00 | 0.00 | 0.00 | 51 | 1019.5 |
| 20260509020504 | 17 | 305 | 0.0 | 0.0 | 0.00 | 0.00 | 0.00 | 51 | 1019.5 |
| 20260509020006 | 17 | 305 | 0.0 | 0.0 | 0.00 | 0.00 | 0.00 | 51 | 1019.5 |
| 20260509015504 | 17 | 305 | 0.0 | 0.0 | 0.00 | 0.00 | 0.00 | 50 | 1019.5 |
| 20260509015004 | 17 | 282 | 0.0 | 0.0 | 0.00 | 0.00 | 0.00 | 50 | 1019.5 |
| 20260509014004 | 18 | 246 | 0.0 | 0.0 | 0.00 | 0.00 | 0.00 | 50 | 1019.5 |
| 20260509013005 | 18 | 267 | 0.0 | 0.0 | 0.00 | 0.00 | 0.00 | 50 | 1020.5 |
| 20260509011505 | 18 | 291 | 0.0 | 0.0 | 0.00 | 0.00 | 0.00 | 50 | 1019.5 |
| 20260509011005 | 18 | 305 | 0.0 | 0.0 | 0.00 | 0.00 | 0.00 | 50 | 1019.5 |
| 20260509005504 | 18 | 191 | 0.0 | 4.8 | 0.00 | 0.00 | 0.00 | 50 | 1019.5 |
| 20260509004504 | 18 | 238 | 0.0 | 8.0 | 0.00 | 0.00 | 0.00 | 50 | 1019.5 |
| 20260509004005 | 18 | 245 | 0.0 | 8.0 | 0.00 | 0.00 | 0.00 | 50 | 1019.5 |
| 20260509003505 | 18 | 68 | 0.0 | 0.0 | 0.00 | 0.00 | 0.00 | 50 | 1019.5 |
| 20260509003005 | 18 | 305 | 0.0 | 0.0 | 0.00 | 0.00 | 0.00 | 50 | 1020.5 |
| 20260509002504 | 18 | 214 | 0.0 | 0.0 | 0.00 | 0.00 | 0.00 | 49 | 1020.5 |
| 20260509002004 | 18 | 238 | 0.0 | 0.0 | 0.00 | 0.00 | 0.00 | 50 | 1020.5 |
| 20260509001504 | 18 | 305 | 0.0 | 3.2 | 0.00 | 0.00 | 0.00 | 50 | 1020.5 |
| 20260509001005 | 18 | 40 | 0.0 | 12.9 | 0.00 | 0.00 | 0.00 | 50 | 1020.5 |
| 20260509000504 | 18 | 215 | 0.0 | 12.9 | 0.00 | 0.00 | 0.00 | 50 | 1020.5 |
| 20260509000004 | 18 | 141 | 1.6 | 12.9 | 0.00 | 0.00 | 0.00 | 50 | 1020.5 |
| 20260508235504 | 18 | 75 | 0.0 | 4.8 | 0.00 | 0.00 | 0.00 | 50 | 1020.5 |
| 20260508235004 | 18 | 234 | 0.0 | 3.2 | 0.00 | 0.00 | 0.00 | 50 | 1020.5 |
| 20260508234504 | 18 | 279 | 0.0 | 4.8 | 0.00 | 0.00 | 0.00 | 50 | 1019.5 |
| 20260508234004 | 18 | 88 | 0.0 | 8.0 | 0.00 | 0.00 | 0.00 | 50 | 1019.5 |
| 20260508233505 | 18 | 31 | 1.6 | 8.0 | 0.00 | 0.00 | 0.00 | 50 | 1019.5 |
| 20260508233004 | 18 | 215 | 0.0 | 8.0 | 0.00 | 0.00 | 0.00 | 50 | 1019.5 |
| 20260508232505 | 18 | 133 | 1.6 | 8.0 | 0.00 | 0.00 | 0.00 | 50 | 1019.5 |
| 20260508232004 | 18 | 259 | 0.0 | 3.2 | 0.00 | 0.00 | 0.00 | 50 | 1019.5 |
| 20260508231004 | 18 | 248 | 0.0 | 11.3 | 0.00 | 0.00 | 0.00 | 50 | 1019.5 |
| 20260508230505 | 18 | 215 | 1.6 | 12.9 | 0.00 | 0.00 | 0.00 | 50 | 1019.5 |
| 20260508230005 | 18 | 145 | 6.4 | 12.9 | 0.00 | 0.00 | 0.00 | 51 | 1019.5 |
| 20260508225503 | 18 | 50 | 0.0 | 8.0 | 0.00 | 0.00 | 0.00 | 50 | 1019.5 |
| 20260508225004 | 18 | 58 | 0.0 | 12.9 | 0.00 | 0.00 | 0.00 | 51 | 1019.5 |
| 20260508224504 | 18 | 130 | 4.8 | 12.9 | 0.00 | 0.00 | 0.00 | 51 | 1020.5 |
| 20260508224004 | 18 | 113 | 0.0 | 3.2 | 0.00 | 0.00 | 0.00 | 51 | 1020.5 |
| 20260508223505 | 18 | 288 | 0.0 | 8.0 | 0.00 | 0.00 | 0.00 | 51 | 1020.5 |
| 20260508223004 | 18 | 156 | 1.6 | 8.0 | 0.00 | 0.00 | 0.00 | 52 | 1020.5 |
| 20260508222504 | 17 | 207 | 1.6 | 8.0 | 0.00 | 0.00 | 0.00 | 51 | 1020.5 |
| 20260508222004 | 18 | 114 | 0.0 | 14.5 | 0.00 | 0.00 | 0.00 | 51 | 1020.5 |
| 20260508221504 | 17 | 232 | 1.6 | 14.5 | 0.00 | 0.00 | 0.00 | 51 | 1020.5 |
| 20260508221005 | 18 | 183 | 0.0 | 8.0 | 0.00 | 0.00 | 0.00 | 51 | 1020.5 |
| 20260508220505 | 17 | 231 | 0.0 | 12.9 | 0.00 | 0.00 | 0.00 | 51 | 1020.5 |
| 20260508220004 | 17 | 149 | 4.8 | 12.9 | 0.00 | 0.00 | 0.00 | 52 | 1019.5 |
| 20260508215504 | 17 | 115 | 0.0 | 12.9 | 0.00 | 0.00 | 0.00 | 52 | 1019.5 |
| 20260508214503 | 17 | 161 | 0.0 | 11.3 | 0.00 | 0.00 | 0.00 | 52 | 1020.5 |
| 20260508214004 | 17 | 203 | 1.6 | 12.9 | 0.00 | 0.00 | 0.00 | 51 | 1020.5 |
| 20260508213504 | 17 | 107 | 1.6 | 14.5 | 0.00 | 0.00 | 0.00 | 52 | 1020.5 |
| 20260508212504 | 17 | 114 | 3.2 | 12.9 | 0.00 | 0.00 | 0.00 | 53 | 1020.5 |
| 20260508212004 | 17 | 282 | 1.6 | 9.7 | 0.00 | 0.00 | 0.00 | 53 | 1020.5 |
| 20260508211004 | 16 | 164 | 3.2 | 14.5 | 0.00 | 0.00 | 0.00 | 54 | 1020.5 |
| 20260508210504 | 16 | 141 | 4.8 | 14.5 | 0.00 | 0.00 | 0.00 | 54 | 1020.5 |
| 20260508205503 | 16 | 188 | 6.4 | 11.3 | 0.00 | 0.00 | 0.00 | 55 | 1020.5 |
| 20260508204503 | 16 | 237 | 0.0 | 16.1 | 0.00 | 0.00 | 0.00 | 56 | 1020.5 |
| 20260508204004 | 16 | 7 | 8.0 | 16.1 | 0.00 | 0.00 | 0.00 | 56 | 1020.5 |
| 20260508203503 | 16 | 189 | 1.6 | 11.3 | 0.00 | 0.00 | 0.00 | 56 | 1020.5 |
| 20260508203003 | 16 | 151 | 4.8 | 11.3 | 0.00 | 0.00 | 0.00 | 56 | 1020.5 |
| 20260508202505 | 16 | 249 | 1.6 | 9.7 | 0.00 | 0.00 | 0.00 | 56 | 1020.5 |
| 20260508202004 | 15 | 238 | 1.6 | 8.0 | 0.00 | 0.00 | 0.00 | 56 | 1020.5 |
| 20260508201504 | 15 | 267 | 0.0 | 16.1 | 0.00 | 0.00 | 0.00 | 57 | 1020.5 |
| 20260508201004 | 15 | 215 | 3.2 | 16.1 | 0.00 | 0.00 | 0.00 | 57 | 1020.5 |
| 20260508200504 | 16 | 192 | 4.8 | 14.5 | 0.00 | 0.00 | 0.00 | 57 | 1020.5 |
| 20260508200004 | 15 | 218 | 6.4 | 14.5 | 0.00 | 0.00 | 0.00 | 57 | 1020.5 |
| 20260508195503 | 15 | 219 | 4.8 | 12.9 | 0.00 | 0.00 | 0.00 | 57 | 1020.5 |
| 20260508195004 | 15 | 219 | 4.8 | 19.3 | 0.00 | 0.00 | 0.00 | 58 | 1020.5 |
| 20260508194503 | 15 | 254 | 4.8 | 19.3 | 0.00 | 0.00 | 0.00 | 58 | 1020.5 |
| 20260508194004 | 15 | 222 | 0.0 | 8.0 | 0.00 | 0.00 | 0.00 | 60 | 1020.5 |
| 20260508193504 | 15 | 248 | 0.0 | 8.0 | 0.00 | 0.00 | 0.00 | 60 | 1020.5 |
| 20260508193007 | 15 | 244 | 0.0 | 8.0 | 0.00 | 0.00 | 0.00 | 60 | 1020.5 |